• MPC Preparation (Info)

  • MPEC 2014-X21 : 2014 WL368

    The following Minor Planet Electronic Circular may be linked-to from your own Web pages, but must not otherwise be redistributed electronically.

    A form allowing access to any MPEC is at the bottom of this page.


    Read MPEC 2014-X20 Read MPEC 2014-X22


    M.P.E.C. 2014-X21                                Issued 2014 Dec. 3, 19:31 UT
    
         The Minor Planet Electronic Circulars contain information on unusual
             minor planets and routine data on comets.  They are published
       on behalf of Commission 20 of the International Astronomical Union by the
              Minor Planet Center, Smithsonian Astrophysical Observatory,
                              Cambridge, MA 02138, U.S.A.
    
                 Prepared using the Tamkin Foundation Computer Network
    
                                  MPC@CFA.HARVARD.EDU
                URL https://www.minorplanetcenter.net/    ISSN 1523-6714
    
                                      2014 WL368
    
    Observations:
         K14Wa8L* C2014 11 26.55099 09 39 19.035+08 49 24.98         21.1 wLEX021F51
         K14Wa8L  C2014 11 26.56225 09 39 20.126+08 49 10.73         21.1 wLEX021F51
         K14Wa8L  C2014 11 26.57347 09 39 21.217+08 48 56.30         21.1 wLEX021F51
         K14Wa8L  C2014 11 26.58470 09 39 22.302+08 48 41.99         21.2 wLEX021F51
         K14Wa8L  C2014 11 28.59096 09 42 39.750+08 06 07.66         21.5 wLEX021F51
         K14Wa8L  C2014 11 28.60411 09 42 40.947+08 05 51.14         21.3 wLEX021F51
         K14Wa8L  C2014 11 28.61730 09 42 42.171+08 05 34.28         21.4 wLEX021F51
         K14Wa8L  C2014 11 28.63052 09 42 43.362+08 05 17.66         21.6 wLEX021F51
         K14Wa8L  C2014 11 30.53491 09 45 42.417+07 25 01.88         21.1 wLEX021F51
         K14Wa8L  C2014 11 30.54777 09 45 43.544+07 24 45.49         21.0 wLEX021F51
         K14Wa8L  C2014 11 30.57330 09 45 45.784+07 24 13.48         21.1 wLEX021F51
         K14Wa8L  C2014 12 02.57243 09 48 43.914+06 42 11.18         21.1 wLEX021F51
         K14Wa8L  C2014 12 02.58543 09 48 44.986+06 41 54.88         20.9 wLEX021F51
         K14Wa8L  C2014 12 02.59843 09 48 46.057+06 41 38.70         20.9 wLEX021F51
         K14Wa8L  C2014 12 02.61138 09 48 47.108+06 41 22.31         21.0 wLEX021F51
    
    Observer details:
    F51 Pan-STARRS 1, Haleakala.  Observers B. Gibson, T. Goggia, N. Primak,
        A. Schultz, M. Willman.  Measurers K. Chambers, S. Chastel, L. Denneau,
        H. Flewelling, M. Huber, E. Magnier, E. Schunova, R. Wainscoat, C. Waters,
        R. Weryk.  1.8-m Ritchey-Chretien + CCD.
    
    Orbital elements:
    2014 WL368                                               Earth MOID = 0.2947 AU
    Epoch 2014 Dec. 9.0 TT = JDT 2457000.5                  MPC
    M  27.62235              (2000.0)            P               Q
    n   0.45445561     Peri.  164.27986     +0.47571911     -0.86912417
    a   1.6754896      Node   257.14726     +0.79131680     +0.49005787
    e   0.2365733      Incl.    7.97893     +0.38406907     +0.06683162
    P   2.17           H   19.3           G   0.15           U   7
    Residuals in seconds of arc
    141126 F51  0.0   0.0     141128 F51  0.1-  0.2+    141130 F51  0.1+  0.1-
    141126 F51  0.1-  0.1+    141128 F51  0.1+  0.0     141202 F51  0.0   0.0
    141126 F51  0.0   0.1-    141128 F51  0.1-  0.2+    141202 F51  0.0   0.0
    141126 F51  0.0   0.1-    141130 F51  0.0   0.0     141202 F51  0.1+  0.1+
    141128 F51  0.0   0.0     141130 F51  0.0   0.2-    141202 F51  0.1-  0.0
    
    Ephemeris:
    2014 WL368               a,e,i = 1.68, 0.24, 8                   q = 1.2791
    Date    TT    R. A. (2000) Decl.     Delta      r     Elong.  Phase     V
    2014 11 03    08 49 54.1 +17 04 34   0.8264  1.2921    90.1    50.2    21.3
    ...
    2014 11 18    09 23 34.8 +11 51 41   0.7679  1.3119    95.8    48.6    21.1
    ...
    2014 11 26    09 38 22.6 +09 01 12   0.7369  1.3258    99.5    47.2    21.0
    ...
    2014 12 02    09 47 53.5 +06 54 16   0.7138  1.3376   102.6    46.0    20.9
    2014 12 03    09 49 20.4 +06 33 18   0.7100  1.3397   103.2    45.8    20.9
    2014 12 04    09 50 44.9 +06 12 24   0.7062  1.3418   103.7    45.5    20.9
    ...
    2014 12 10    09 58 19.5 +04 08 49   0.6835  1.3550   107.2    44.0    20.8
    ...
    2014 12 18    10 05 56.3 +01 31 00   0.6541  1.3742   112.5    41.4    20.7
    ...
    2015 01 02    10 11 32.8 -02 49 12   0.6045  1.4139   124.1    35.1    20.4
    
    A. U. Tomatic                (C) Copyright 2014 MPC           M.P.E.C. 2014-X21
    

    Read MPEC 2014-X20 Read MPEC 2014-X22


    MPEC number:

    Enter an MPEC number in one of the following forms:

    • 1997-B01 (the full form)
    • J97B01 (the packed version of the full form)
    • B01 (the abbreviated form)